�N����,����,�~����,�C��,���x,�C��,����,���ϕ���,�ő�u�ԕ���,�ő厞����,���˗�,�I�_���x,�n�����x,�ő啗���N��,DTYPE
"22/09/29","00:10",0.0,19.0,87.7,1006.7,349.5,0.8,1.9,343.0,0.00,17.0,22.9,"00:02:48",1
"22/09/29","00:20",0.0,19.0,88.3,1007.1,335.0,0.8,1.7,327.3,0.00,17.1,22.9,"00:14:00",1
"22/09/29","00:30",0.0,19.0,88.8,1006.7,336.1,0.8,1.7,318.8,0.00,17.2,22.9,"00:25:52",1
"22/09/29","00:40",0.0,19.1,89.1,1006.9,335.5,1.2,2.1,343.0,0.00,17.3,22.8,"00:38:00",1
"22/09/29","00:50",0.0,19.1,89.3,1006.7,333.0,1.6,2.1,336.4,0.00,17.3,22.7,"00:48:48",1
"22/09/29","01:00",0.0,19.1,89.5,1006.7,337.6,1.7,2.7,340.0,0.00,17.4,22.7,"00:59:28",1
"22/09/29","01:10",0.0,19.2,89.6,1006.7,331.8,1.6,3.6,337.1,0.00,17.5,22.7,"01:01:44",1
"22/09/29","01:20",0.0,19.2,89.5,1006.9,348.6,1.2,2.4,338.8,0.00,17.5,22.8,"01:11:12",1
"22/09/29","01:30",0.0,19.3,89.4,1006.7,351.0,1.1,1.8,338.3,0.00,17.6,22.5,"01:20:56",1
"22/09/29","01:40",0.0,19.1,89.5,1006.9,319.0,1.3,2.0,337.9,0.00,17.4,22.7,"01:38:32",1
"22/09/29","01:50",0.0,19.0,89.8,1006.9,335.2,1.5,1.9,335.7,0.00,17.3,22.6,"01:41:52",1
"22/09/29","02:00",0.0,18.9,90.1,1006.9,334.5,1.3,1.8,333.8,0.00,17.3,22.7,"01:52:32",1
"22/09/29","02:10",0.0,19.0,90.2,1006.9,337.2,1.1,2.0,346.0,0.00,17.4,22.7,"02:06:00",1
"22/09/29","02:20",0.0,19.1,90.2,1006.9,329.6,1.2,1.6,325.4,0.00,17.5,22.7,"02:14:16",1
"22/09/29","02:30",0.0,19.1,90.4,1006.7,313.9,1.5,2.0,335.9,0.00,17.5,22.6,"02:22:08",1
"22/09/29","02:40",0.0,19.1,90.5,1006.4,320.0,1.3,2.5,340.1,0.00,17.5,22.6,"02:35:44",1
"22/09/29","02:50",0.0,19.0,90.5,1006.4,311.5,1.1,1.9,328.7,0.00,17.5,22.4,"02:41:20",1
"22/09/29","03:00",0.0,19.1,90.6,1006.7,337.0,1.3,2.4,329.1,0.00,17.6,22.6,"02:51:36",1
"22/09/29","03:10",0.0,19.1,90.7,1006.4,332.5,1.2,2.1,337.6,0.00,17.6,22.3,"03:00:08",1
"22/09/29","03:20",0.0,19.0,90.7,1006.2,331.4,0.2,0.8,303.8,0.00,17.5,22.6,"03:16:24",1
"22/09/29","03:30",0.0,18.8,90.7,1006.2,298.6,0.6,0.9,348.2,0.00,17.3,22.5,"03:21:04",1
"22/09/29","03:40",0.0,18.6,90.9,1006.4,305.0,0.8,1.7,320.2,0.00,17.1,22.6,"03:30:02",1
"22/09/29","03:50",0.0,18.5,91.0,1006.2,315.0,1.2,1.9,340.0,0.00,17.0,22.5,"03:43:52",1
"22/09/29","04:00",0.0,18.4,91.3,1006.2,270.2,0.3,0.9,269.5,0.00,17.0,22.5,"03:50:56",1
"22/09/29","04:10",0.0,18.5,91.5,1006.2,229.5,0.3,1.0,292.3,0.00,17.1,22.5,"04:09:20",1
"22/09/29","04:20",0.0,18.4,91.5,1006.4,281.7,0.7,1.4,324.1,0.00,17.0,22.5,"04:12:16",1
"22/09/29","04:30",0.0,18.3,91.8,1006.2,251.5,0.6,0.9,222.8,0.00,17.0,22.3,"04:22:40",1
"22/09/29","04:40",0.0,18.3,91.9,1005.7,294.3,1.0,1.6,317.1,0.00,17.0,22.4,"04:34:24",1
"22/09/29","04:50",0.0,18.1,92.1,1006.4,310.1,1.1,1.6,328.2,0.00,16.8,22.3,"04:40:56",1
"22/09/29","05:00",0.0,18.2,92.4,1006.4,333.3,1.5,2.2,328.8,0.00,17.0,22.6,"04:55:20",1
"22/09/29","05:10",0.0,18.1,92.5,1006.4,302.9,1.1,1.8,326.0,0.00,16.9,22.4,"05:01:04",1
"22/09/29","05:20",0.0,18.0,92.8,1006.9,286.4,1.2,1.8,316.1,0.00,16.9,22.3,"05:17:20",1
"22/09/29","05:30",0.0,18.0,92.9,1006.9,295.7,1.2,1.6,313.1,0.00,16.9,22.4,"05:21:12",1
"22/09/29","05:40",0.0,18.0,93.1,1006.7,318.2,1.5,2.6,321.9,0.00,16.9,22.3,"05:34:40",1
"22/09/29","05:50",0.0,17.9,93.1,1006.9,321.3,1.0,1.8,340.2,0.00,16.8,22.2,"05:41:52",1
"22/09/29","06:00",0.0,17.7,93.3,1007.4,298.9,0.8,1.9,321.9,0.00,16.6,22.3,"05:59:44",1
"22/09/29","06:10",0.0,17.7,93.4,1007.1,323.7,1.5,2.2,328.9,0.00,16.7,22.4,"06:07:12",1
"22/09/29","06:20",0.0,17.5,93.5,1007.4,317.2,1.2,1.6,315.7,0.00,16.5,22.1,"06:13:12",1
"22/09/29","06:30",0.0,17.5,93.6,1007.6,321.3,1.2,1.8,320.6,0.00,16.5,22.2,"06:29:04",1
"22/09/29","06:40",0.0,17.4,93.8,1007.6,320.9,1.6,2.4,330.7,0.00,16.4,22.0,"06:37:44",1
"22/09/29","06:50",0.0,17.6,93.9,1007.8,323.5,1.3,2.4,318.8,0.00,16.6,22.2,"06:40:56",1
"22/09/29","07:00",0.0,17.8,94.0,1007.8,319.6,1.0,1.3,337.3,0.00,16.9,22.1,"06:55:20",1
"22/09/29","07:10",0.0,18.0,94.1,1007.6,304.8,0.8,1.3,330.5,0.00,17.1,22.2,"07:00:48",1
"22/09/29","07:20",0.0,18.2,94.1,1007.6,325.7,1.0,1.4,352.0,0.01,17.3,22.0,"07:17:36",1
"22/09/29","07:30",0.0,18.5,94.1,1007.8,296.6,0.8,1.2,315.8,0.02,17.6,22.0,"07:20:24",1
"22/09/29","07:40",0.0,18.8,94.0,1008.1,307.9,1.1,2.7,327.9,0.04,17.9,22.0,"07:38:24",1
"22/09/29","07:50",0.0,19.1,93.8,1008.1,327.2,1.6,2.6,338.8,0.05,18.1,21.9,"07:45:36",1
"22/09/29","08:00",0.0,19.3,93.5,1008.3,309.5,1.1,2.8,337.4,0.05,18.3,22.1,"07:59:04",1
"22/09/29","08:10",0.0,19.6,93.0,1008.6,327.2,1.7,2.7,336.3,0.06,18.5,21.9,"08:05:52",1
"22/09/29","08:20",0.0,19.9,92.2,1008.6,325.6,1.6,3.1,335.1,0.07,18.6,22.0,"08:14:56",1
"22/09/29","08:30",0.0,20.2,91.2,1008.6,317.8,1.7,3.1,329.1,0.08,18.8,22.1,"08:29:52",1
"22/09/29","08:40",0.0,20.8,90.3,1008.3,315.4,1.3,3.3,340.4,0.12,19.2,21.9,"08:30:56",1
"22/09/29","08:50",0.0,21.2,88.3,1008.1,307.5,0.8,2.5,332.3,0.15,19.2,22.1,"08:47:20",1
"22/09/29","09:00",0.0,21.6,85.6,1008.3,322.3,1.3,2.6,337.5,0.15,19.1,22.0,"08:59:44",1
"22/09/29","09:10",0.0,22.4,82.6,1008.3,321.5,1.1,2.4,351.0,0.18,19.3,22.1,"09:02:32",1
"22/09/29","09:20",0.0,22.9,79.2,1007.8,295.9,0.8,1.8,325.2,0.21,19.1,22.0,"09:18:00",1
"22/09/29","09:30",0.0,23.0,76.0,1007.6,278.3,1.1,2.6,310.7,0.19,18.6,22.2,"09:26:40",1
"22/09/29","09:40",0.0,23.1,74.4,1008.1,246.7,1.2,2.7,242.0,0.17,18.3,21.9,"09:39:20",1
"22/09/29","09:50",0.0,23.2,73.9,1007.8,282.7,1.1,2.6,244.8,0.17,18.3,22.1,"09:49:12",1
"22/09/29","10:00",0.0,23.5,73.4,1007.8,267.9,1.0,2.0,236.2,0.15,18.5,22.2,"09:53:36",1
"22/09/29","10:10",0.0,23.4,73.4,1007.6,302.6,1.0,2.4,326.4,0.14,18.4,22.3,"10:03:28",1
"22/09/29","10:20",0.0,23.7,72.5,1007.6,326.4,1.1,2.6,322.1,0.22,18.5,22.2,"10:18:56",1
"22/09/29","10:30",0.0,24.2,69.4,1007.4,327.7,1.5,4.0,341.4,0.26,18.3,22.2,"10:25:36",1
"22/09/29","10:40",0.0,24.5,67.2,1006.9,347.2,1.1,2.8,346.1,0.20,18.1,22.3,"10:31:04",1
"22/09/29","10:50",0.0,24.6,62.9,1006.7,348.4,1.3,3.1,339.6,0.22,17.1,22.3,"10:45:52",1
"22/09/29","11:00",0.0,24.9,61.9,1007.1,352.1,1.6,3.7,357.6,0.27,17.1,22.4,"10:59:28",1
"22/09/29","11:10",0.0,25.2,60.3,1006.2,342.7,1.8,4.4,342.1,0.32,17.0,22.2,"11:02:24",1
"22/09/29","11:20",0.0,25.5,58.8,1006.0,343.6,1.5,3.5,2.3,0.30,16.9,22.2,"11:18:08",1
"22/09/29","11:30",0.0,25.7,57.4,1006.4,353.7,1.5,3.6,336.1,0.33,16.7,22.4,"11:22:32",1
"22/09/29","11:40",0.0,26.2,57.0,1006.2,349.7,1.1,4.0,24.6,0.32,17.1,22.7,"11:30:24",1
"22/09/29","11:50",0.0,26.7,55.9,1005.7,352.5,0.6,1.7,34.4,0.29,17.2,22.4,"11:49:20",1
"22/09/29","12:00",0.0,27.0,54.9,1005.2,12.6,1.3,3.1,350.6,0.37,17.2,22.5,"11:58:08",1
"22/09/29","12:10",0.0,27.2,56.4,1005.2,60.3,1.0,2.0,20.9,0.34,17.8,22.5,"12:00:08",1
"22/09/29","12:20",0.0,27.6,53.8,1005.5,113.6,0.8,2.0,144.2,0.42,17.4,22.7,"12:10:56",1
"22/09/29","12:30",0.0,27.8,52.9,1006.0,139.5,1.0,2.2,112.7,0.39,17.4,22.7,"12:22:32",1
"22/09/29","12:40",0.0,27.4,52.3,1006.2,247.6,1.1,2.5,57.3,0.30,16.8,22.7,"12:37:28",1
"22/09/29","12:50",0.0,27.3,54.4,1005.7,132.0,1.1,3.4,126.7,0.36,17.3,22.8,"12:47:04",1
"22/09/29","13:00",0.0,27.7,54.3,1005.7,154.5,1.1,3.1,219.9,0.38,17.7,22.7,"12:56:00",1
"22/09/29","13:10",0.0,27.3,53.7,1005.7,208.3,1.0,2.1,239.1,0.25,17.1,22.9,"13:09:52",1
"22/09/29","13:20",0.0,27.3,54.5,1005.2,281.2,1.0,3.1,237.6,0.23,17.4,23.2,"13:13:28",1
"22/09/29","13:30",0.0,27.3,54.5,1005.5,66.2,0.8,2.5,230.7,0.26,17.4,23.1,"13:20:16",1
"22/09/29","13:40",0.0,27.3,54.0,1005.2,126.7,0.7,2.0,117.6,0.23,17.2,23.0,"13:34:24",1
"22/09/29","13:50",0.0,27.2,54.3,1005.5,150.7,0.7,1.9,117.9,0.21,17.2,23.1,"13:40:24",1
"22/09/29","14:00",0.0,27.1,53.1,1005.5,78.0,0.8,2.0,31.3,0.19,16.8,23.1,"13:56:24",1
"22/09/29","14:10",0.0,27.2,55.2,1005.2,74.0,0.7,1.8,122.0,0.20,17.5,23.2,"14:07:52",1
"22/09/29","14:20",0.0,27.3,54.3,1005.0,33.9,0.3,1.0,150.3,0.18,17.3,23.0,"14:15:28",1
"22/09/29","14:30",0.0,27.1,54.6,1004.8,259.2,0.6,1.2,220.5,0.18,17.2,23.3,"14:22:16",1
"22/09/29","14:40",0.0,27.4,53.8,1004.8,338.8,1.5,2.8,353.4,0.29,17.3,23.3,"14:35:52",1
"22/09/29","14:50",0.0,27.2,55.0,1005.0,320.3,0.8,2.1,325.5,0.15,17.4,23.6,"14:43:36",1
"22/09/29","15:00",0.0,27.0,55.7,1004.5,335.6,1.5,2.9,355.5,0.20,17.4,23.3,"14:55:12",1
"22/09/29","15:10",0.0,26.8,56.3,1004.8,343.5,1.3,3.4,302.7,0.15,17.4,23.5,"15:05:38",1
"22/09/29","15:20",0.0,26.4,56.5,1004.5,345.6,1.7,3.3,354.3,0.13,17.1,23.4,"15:10:48",1
"22/09/29","15:30",0.0,25.9,57.7,1005.2,349.4,1.6,3.3,351.5,0.10,17.0,23.5,"15:27:36",1
"22/09/29","15:40",0.0,25.9,57.6,1005.2,349.6,1.7,3.5,356.5,0.13,16.9,23.5,"15:32:00",1
"22/09/29","15:50",0.0,25.7,59.3,1005.0,343.3,1.5,3.4,352.8,0.10,17.2,23.5,"15:41:44",1
"22/09/29","16:00",0.0,25.2,60.2,1005.7,342.4,1.5,2.7,342.6,0.06,17.0,23.6,"15:55:44",1
"22/09/29","16:10",0.0,24.9,61.9,1005.7,333.7,1.3,2.5,354.3,0.05,17.1,23.5,"16:01:04",1
"22/09/29","16:20",0.0,24.8,62.4,1005.5,337.4,1.8,3.7,340.9,0.07,17.2,23.5,"16:18:32",1
"22/09/29","16:30",0.0,24.6,63.3,1005.5,340.9,2.1,4.5,1.6,0.06,17.2,23.5,"16:25:52",1
"22/09/29","16:40",0.0,24.4,64.5,1005.7,346.1,2.0,5.6,345.8,0.04,17.3,23.7,"16:31:36",1
"22/09/29","16:50",0.0,24.3,65.2,1006.2,341.4,1.7,3.9,333.1,0.05,17.4,23.4,"16:43:44",1
"22/09/29","17:00",0.0,24.1,66.1,1006.4,336.3,1.3,2.9,348.1,0.02,17.4,23.5,"16:56:32",1
"22/09/29","17:10",0.0,23.7,66.8,1006.4,337.0,1.7,4.1,359.2,0.01,17.2,23.6,"17:02:32",1
"22/09/29","17:20",0.0,23.5,67.4,1006.0,341.4,2.0,3.6,346.5,0.01,17.2,23.6,"17:14:48",1
"22/09/29","17:30",0.0,23.3,68.2,1006.0,342.4,1.8,4.0,350.5,0.02,17.2,23.6,"17:20:56",1
"22/09/29","17:40",0.0,23.1,68.7,1006.7,332.0,1.8,4.9,354.4,0.01,17.1,23.6,"17:39:28",1
"22/09/29","17:50",0.0,23.1,69.3,1006.7,331.0,2.0,3.6,341.0,0.00,17.2,23.5,"17:43:36",1
"22/09/29","18:00",0.0,22.8,70.0,1006.7,331.4,1.6,3.3,359.3,0.00,17.1,23.6,"17:51:20",1
"22/09/29","18:10",0.0,22.7,70.7,1007.1,313.2,1.7,3.6,332.9,0.00,17.1,23.3,"18:06:48",1
"22/09/29","18:20",0.0,22.5,71.7,1007.4,312.8,1.8,5.0,331.5,0.00,17.2,23.5,"18:16:40",1
"22/09/29","18:30",0.0,22.3,72.6,1007.1,308.3,2.0,4.1,347.0,0.00,17.2,23.4,"18:26:56",1
"22/09/29","18:40",0.0,22.2,73.5,1007.6,322.7,1.8,4.0,326.7,0.00,17.3,23.4,"18:30:16",1
"22/09/29","18:50",0.0,22.0,74.4,1007.1,324.7,1.8,3.6,346.4,0.00,17.3,23.4,"18:44:40",1
"22/09/29","19:00",0.0,21.9,74.9,1007.4,307.0,1.5,3.4,255.0,0.00,17.3,23.3,"18:57:20",1
"22/09/29","19:10",0.0,21.9,75.3,1007.6,272.0,1.3,2.7,243.9,0.00,17.4,23.2,"19:05:04",1
"22/09/29","19:20",0.0,21.7,75.8,1007.8,248.3,0.5,1.1,301.9,0.00,17.3,23.2,"19:19:52",1
"22/09/29","19:30",0.0,21.4,77.1,1007.6,307.0,1.1,1.7,349.0,0.00,17.3,23.2,"19:29:44",1
"22/09/29","19:40",0.0,21.1,78.4,1007.6,332.9,1.3,1.9,341.7,0.00,17.2,23.1,"19:39:20",1
"22/09/29","19:50",0.0,20.9,79.2,1007.4,335.7,1.3,2.4,343.1,0.00,17.2,23.2,"19:41:20",1
"22/09/29","20:00",0.0,20.7,79.8,1007.8,310.7,1.3,2.0,308.4,0.00,17.1,23.2,"19:57:36",1
"22/09/29","20:10",0.0,20.6,80.5,1008.8,300.0,1.1,2.0,322.1,0.00,17.2,23.1,"20:00:56",1
"22/09/29","20:20",0.0,20.6,81.3,1008.8,304.8,1.3,2.4,327.6,0.00,17.3,23.1,"20:18:24",1
"22/09/29","20:30",0.0,20.4,82.1,1009.0,328.4,1.5,2.0,325.6,0.00,17.3,22.9,"20:21:44",1
"22/09/29","20:40",0.0,20.1,83.0,1009.0,337.2,1.6,3.3,334.4,0.00,17.2,23.0,"20:38:32",1
"22/09/29","20:50",0.0,20.1,83.5,1008.8,328.6,1.8,3.3,327.9,0.00,17.3,23.1,"20:48:16",1
"22/09/29","21:00",0.0,20.2,83.7,1009.0,329.6,1.8,3.3,323.7,0.00,17.4,23.0,"20:56:16",1
"22/09/29","21:10",0.0,20.2,83.6,1008.8,334.6,2.1,3.4,348.2,0.00,17.4,23.0,"21:02:56",1
"22/09/29","21:20",0.0,20.1,83.5,1009.0,335.7,1.7,3.1,344.7,0.00,17.3,23.0,"21:15:12",1
"22/09/29","21:30",0.0,19.8,84.0,1009.5,335.3,1.7,2.8,330.4,0.00,17.1,22.9,"21:28:08",1
"22/09/29","21:40",0.0,19.6,84.7,1009.5,339.5,1.8,3.2,348.4,0.00,17.0,23.0,"21:33:28",1
"22/09/29","21:50",0.0,19.5,85.2,1009.5,336.2,2.2,3.6,334.0,0.00,17.0,22.8,"21:42:40",1
"22/09/29","22:00",0.0,19.6,85.5,1009.5,337.1,2.1,4.2,340.5,0.00,17.1,22.7,"21:57:12",1
"22/09/29","22:10",0.0,19.6,85.4,1009.5,331.7,2.0,3.5,321.8,0.00,17.1,22.7,"22:07:28",1
"22/09/29","22:20",0.0,19.4,85.4,1009.7,338.6,1.8,3.1,338.1,0.00,16.9,22.7,"22:11:12",1
"22/09/29","22:30",0.0,19.3,85.6,1009.5,337.5,1.8,3.2,331.3,0.00,16.9,22.8,"22:28:40",1
"22/09/29","22:40",0.0,19.3,85.8,1009.7,336.9,2.2,4.1,348.8,0.00,16.9,22.7,"22:39:52",1
"22/09/29","22:50",0.0,19.2,85.9,1009.7,337.3,2.2,3.5,332.9,0.00,16.8,22.3,"22:41:44",1
"22/09/29","23:00",0.0,19.2,86.1,1009.7,323.4,2.1,3.2,337.0,0.00,16.9,22.7,"22:52:40",1
"22/09/29","23:10",0.0,19.1,86.3,1010.0,317.0,2.1,3.6,332.5,0.00,16.8,22.7,"23:08:16",1
"22/09/29","23:20",0.0,19.0,86.6,1009.7,331.3,2.0,3.4,324.0,0.00,16.8,22.6,"23:18:08",1
"22/09/29","23:30",0.0,19.1,86.8,1010.0,328.3,2.5,3.7,340.3,0.00,16.9,22.7,"23:27:36",1
"22/09/29","23:40",0.0,19.1,87.0,1010.0,327.6,2.6,4.7,327.7,0.00,16.9,22.5,"23:39:44",1
"22/09/29","23:50",0.0,19.0,87.2,1010.2,330.5,2.6,4.9,337.1,0.00,16.9,22.6,"23:43:04",1
"22/09/29","24:00",0.0,18.9,87.5,1010.0,335.3,2.2,4.0,342.6,0.00,16.8,22.5,"23:50:56",1
